Weather Roundup
Issued by NWS

Home | Current Version | Previous Version | Graphics & Text | Print | Product List | Glossary Off
Versions: 1 2 3 4 5 6 7 8 9 10 11 12 13 14 15 16 17 18 19 20 21 22 23 24 25 26 27 28 29 30 31 32 33 34 35 36 37 38 39 40 41 42 43 44 45 46 47 48 49 50

879
NZUS93 KARX 240359
HRRWXR

CURRENT HOURLY OBSERVATIONS ACROSS
MUCH OF THE UPPER MISSISSIPPI VALLEY
NATIONAL WEATHER SERVICE LA CROSSE WI
1100 PM CDT FRI SEP 23 2016


...SOUTHEAST MINNESOTA...


CITY           SKY/WX    TMP DP  RH WIND       PRES   REMARKS
ROCHESTER      CLOUDY    64  62  93 SE12      30.12R
ROCHESTER/MAYO   N/A     64  62  94 SE13      30.11R
WINONA         CLOUDY    63  59  88 SE9       30.12S
AUSTIN         CLOUDY    64  61  88 SE13      30.09S
ALBERT LEA     CLOUDY    66  64  94 SE10      30.08S
DODGE CENTER   CLOUDY    63  61  94 SE12G22   30.10S
PRESTON        CLOUDY    63  59  88 SE9       30.13R
OWATONNA       CLOUDY    64  61  88 SE14G20   30.07F
FARIBAULT      NOT AVBL
$$

...ELSEWHERE IN MINNESOTA...


CITY           SKY/WX    TMP DP  RH WIND       PRES   REMARKS
MINNEAPOLIS    CLOUDY    65  60  84 SE12      30.08S
INTNL FALLS    CLOUDY    57  44  62 SE13      30.15S
DULUTH         CLOUDY    57  54  89 E15       30.16R
RED WING       CLOUDY    66  61  82 SE13G18   30.09S
REDWOOD FALLS  CLOUDY    67  63  87 SE15G22   30.01S
MANKATO        CLOUDY    66  63  90 SE15G25   30.04S
WORTHINGTON    CLOUDY    70  67  90 SE15G23   30.00S
FAIRMONT       CLOUDY    67  65  93 SE14      30.03F
$$

...SOUTHWEST WISCONSIN...


CITY           SKY/WX    TMP DP  RH WIND       PRES   REMARKS
LA CROSSE      CLOUDY    67  61  81 SE7       30.12F
PRAIRIE DU CHI CLOUDY    67  62  85 E5        30.11F
BOSCOBEL       CLOUDY    67  62  84 NE6       30.13F
LONE ROCK      NOT AVBL
PLATTEVILLE    PTCLDY    66  64  96 E9        30.14S
FORT MC COY    CLOUDY    64  58  83 E9        30.16F
CAMP DOUGLAS   CLOUDY    62  57  83 E12       30.17S
MAUSTON-NEW LI CLOUDY    63  58  83 E3        30.18S
VIROQUA        CLOUDY    63  59  89 E8        30.15S
WIS DELLS      NOT AVBL
$$

...ELSEWHERE IN WISCONSIN...


CITY           SKY/WX    TMP DP  RH WIND       PRES   REMARKS
MILWAUKEE      CLOUDY    66  61  84 E12       30.17R
MADISON        CLOUDY    63  59  87 NE7       30.17R
GREEN BAY      PTCLDY    58  56  93 NE7       30.22F
EAU CLAIRE     CLOUDY    63  57  82 E10       30.14S
BLACK RVR FLS  CLOUDY    64  58  83 E8        30.15F
MEDFORD        CLOUDY    58  56  96 E9        30.20S
WAUSAU         PTCLDY    56  53  90 E6        30.20F
WIS RAPIDS     PTCLDY    59  56  89 E8        30.21S
MARSHFIELD     PTCLDY    59  54  83 E12       30.20R
RICE LAKE      NOT AVBL
$$

...NORTHEAST IOWA...


CITY           SKY/WX    TMP DP  RH WIND       PRES   REMARKS
WATERLOO       PTCLDY    66  64  93 E8        30.07S
DUBUQUE        CLEAR     65  62  90 E9        30.12S
DECORAH        CLOUDY    64  64 100 VRB8G15   30.10F
MASON CITY     NOT AVBL
CHARLES CITY   CLOUDY    66  66 100 E9        30.10S
OELWEIN        PTCLDY    64  64 100 E9        30.10S
$$

...ELSEWHERE IN IOWA...


CITY           SKY/WX    TMP DP  RH WIND       PRES   REMARKS
DES MOINES     CLEAR     75  70  84 E12       30.02R
IOWA CITY      CLEAR     71  66  84 E7        30.08S
FORT DODGE     CLOUDY    70  66  88 SE15G21   30.04R
MARSHALLTOWN   PTCLDY    67  67 100 E13       30.05S
CEDAR RAPIDS   CLEAR     69  68  96 E9        30.07S
$$

...NORTHERN ILLINOIS...


CITY           SKY/WX    TMP DP  RH WIND       PRES   REMARKS
CHICAGO-OHARE  CLOUDY    68  64  87 NE10      30.13S
CHICAGO-MIDWAY CLOUDY    71  64  78 NE13      30.13R
MOLINE         CLEAR     71  65  81 E12       30.09R
ROCKFORD       MOCLDY    65  62  90 NE7       30.16R
PEORIA         CLEAR     72  68  87 E14       30.09R
$$

NOTE: "FAIR" INDICATES FEW OR NO CLOUDS BELOW 12,000 FEET WITH NO
SIGNIFICANT WEATHER AND/OR OBSTRUCTIONS TO VISIBILITY. WIND
SPEEDS ARE IN MILES-PER-HOUR.




USA.gov is the U.S. government's official web portal to all federal, state and local government web resources and services.